Miscellaneous Local Product
Issued by NWS Hastings, NE

Home | Current Version | Previous Version | Text Only | Print | Product List | Glossary On
Versions: 1 2 3 4 5 6 7 8 9 10 11 12 13 14 15 16 17 18 19 20 21 22 23 24 25 26 27 28 29 30 31 32 33 34 35 36 37 38 39 40 41 42 43 44 45 46 47 48 49 50
000
AXUS43 KGID 290802
MISGRI

GID CWA HOURLY WEATHER ROUNDUP
NATIONAL WEATHER SERVICE HASTINGS NE
300 AM CDT THU JUN 29 2017

NOTE: "FAIR" INDICATES FEW OR NO CLOUDS BELOW 12,000 FEET WITH NO
SIGNIFICANT WEATHER AND/OR OBSTRUCTIONS TO VISIBILITY.

...SOUTH CENTRAL NEBRASKA...

CITY           SKY/WX    TMP DP  RH WIND       PRES   REMARKS
GRAND ISLAND   CLOUDY    70  65  84 NW3       29.72F
HASTINGS       CLOUDY    69  61  75 S9        29.76F
KEARNEY        PTCLDY    70  61  73 S9        29.75F
ORD            MOCLDY    68  55  63 NW8       29.72R
YORK           CLOUDY    68  66  94 S6        29.73F THUNDER
AURORA         CLOUDY    69  65  86 SE6       29.71F
LEXINGTON      CLOUDY    71  57  61 SE8       29.74R
HOLDREGE       PTCLDY    68  59  73 SE5       29.77R
HEBRON         TSTM      67  63  88 SW17G35   29.83R

...NEBRASKA PANHANDLE...

CITY           SKY/WX    TMP DP  RH WIND       PRES   REMARKS
CHADRON        CLEAR     53  51  93 CALM      29.80F
ALLIANCE       PTCLDY    60  51  72 SE6       29.80F
SCOTTSBLUFF    PTCLDY    61  53  75 N7        29.81F
SIDNEY         MOCLDY    59  52  77 SE8       29.84F

...WESTERN AND NORTH CENTRAL NEBRASKA...

CITY           SKY/WX    TMP DP  RH WIND       PRES   REMARKS
VALENTINE      PTCLDY    63  53  70 SE16      29.77F
AINSWORTH      PTCLDY    60  58  91 E6        29.81F
ONEILL         CLOUDY    66  58  74 NW24G35   29.80R
BROKEN BOW     MOCLDY    72  54  53 NW14      29.76R
IMPERIAL       CLOUDY    67  51  56 NW16      29.85R THUNDER
NORTH PLATTE   TSTM      71  55  56 NW22G31   29.86R
MCCOOK         CLOUDY    75  52  44 S8        29.73F

...EASTERN NEBRASKA...

CITY           SKY/WX    TMP DP  RH WIND       PRES   REMARKS
NORFOLK        MOCLDY    64  61  90 CALM      29.75R
SO SIOUX CITY  CLEAR     63  62  97 CALM      29.73R
TEKAMAH        CLEAR     66  62  87 CALM      29.72S
ALBION         CLOUDY    73  60  63 NE6       29.73S
OMAHA EPPLEY   CLOUDY    71  65  81 CALM      29.72S
OFFUTT AFB     PTCLDY    68  67  97 CALM      29.71S
MILLARD        CLOUDY    71  68  89 W3        29.73R
LINCOLN        CLOUDY    70  67  90 NE3       29.74R
NEBRASKA CITY  CLOUDY    74  73  96 S6        29.74R
BEATRICE       CLOUDY    75  62  64 W10G28    29.74R THUNDER
FALLS CITY     LGT RAIN  76  69  79 E10       29.73R

...NORTHERN KANSAS...

CITY           SKY/WX    TMP DP  RH WIND       PRES   REMARKS
GOODLAND       LGT RAIN  66  60  81 W7        29.92R
HILL CITY      MOCLDY    74  65  73 E8        29.73S
NORTON         SUNNY     70  54  56 E7        29.75F
PHILLIPSBURG   PTCLDY    75  61  60 NE10      29.76S
SMITH CENTER   MOCLDY    72  61  68 E18       29.78S
HAYS           CLOUDY    75  66  73 CALM      29.74R
RUSSELL        PTCLDY    77  65  66 S5        29.73R
CONCORDIA      CLOUDY    69  64  84 N26G36    29.85R THUNDER
SALINA         MOCLDY    81  66  60 S7        29.75S
TOPEKA         MOCLDY    80  69  69 S5        29.79S



USA.gov is the U.S. government's official web portal to all federal, state and local government web resources and services.